When you browse on this site, cookies collect data to enhance your experience and personalize the content and advertising you see.
Visit our Privacy Policy to learn more. By continuing to use the site, you agree to this use of cookies and data.
  • In Hungary
  • List of Countries
  • For 7 days
  • Water Temperature
  • Weather Map
  • News
  • Weather Widgets
  • user-avatar
    Login

    Hourly Weather Bonao

    Today, 13 November, Wednesday

    Time Temperature Precipitation Wind Pressure Humidity
    00:00 +19°C° 0 mm 1 mps 679 mmHg 94%
    01:00 +19°C° 0 mm 1 mps 679 mmHg 94%
    02:00 +19°C° 0 mm 1 mps 679 mmHg 94%
    03:00 +19°C° 0 mm 1 mps 679 mmHg 93%
    04:00 +18°C° 0 mm 1 mps 679 mmHg 93%
    05:00 +17°C° 0 mm 0 mps 679 mmHg 91%
    06:00 +18°C° 0 mm 0 mps 680 mmHg 90%
    07:00 +18°C° 0 mm 0 mps 680 mmHg 88%
    08:00 +22°C° 0 mm 1 mps 681 mmHg 81%
    09:00 +24°C° 0 mm 1 mps 681 mmHg 74%
    10:00 +26°C° 0 mm 1 mps 682 mmHg 66%
    11:00 +26°C° 0.2 mm 1 mps 682 mmHg 67%
    12:00 +26°C° 0.2 mm 1 mps 681 mmHg 68%
    13:00 +27°C° 0.2 mm 2 mps 681 mmHg 69%
    14:00 +26°C° 0.8 mm 1 mps 680 mmHg 75%
    15:00 +25°C° 0.8 mm 1 mps 680 mmHg 82%
    16:00 +22°C° 0.8 mm 0 mps 680 mmHg 88%
    17:00 +21°C° 0.5 mm 0 mps 680 mmHg 90%
    18:00 +21°C° 0.5 mm 1 mps 680 mmHg 93%
    19:00 +20°C° 0.5 mm 1 mps 680 mmHg 95%
    20:00 +18°C° 0 mm 0 mps 680 mmHg 95%
    21:00 +18°C° 0 mm 0 mps 680 mmHg 95%
    22:00 +17°C° 0 mm 0 mps 680 mmHg 95%
    23:00 +17°C° 0 mm 0 mps 680 mmHg 95%

    Tomorrow, 14 November, Thursday

    Time Temperature Precipitation Wind Pressure Humidity
    00:00 +17°C° 0 mm 0 mps 680 mmHg 95%
    01:00 +17°C° 0 mm 0 mps 680 mmHg 95%
    02:00 +16°C° 0 mm 0 mps 680 mmHg 94%
    03:00 +16°C° 0 mm 0 mps 680 mmHg 94%
    04:00 +16°C° 0 mm 0 mps 680 mmHg 93%
    05:00 +16°C° 0 mm 0 mps 680 mmHg 90%
    06:00 +19°C° 0 mm 1 mps 680 mmHg 87%
    07:00 +19°C° 0 mm 1 mps 681 mmHg 84%
    08:00 +21°C° 0 mm 1 mps 682 mmHg 78%
    09:00 +23°C° 0 mm 1 mps 682 mmHg 72%
    10:00 +25°C° 0 mm 2 mps 683 mmHg 65%
    11:00 +26°C° 0 mm 2 mps 683 mmHg 64%
    12:00 +26°C° 0 mm 2 mps 682 mmHg 63%
    13:00 +27°C° 0 mm 2 mps 682 mmHg 61%
    14:00 +26°C° 0.2 mm 2 mps 681 mmHg 68%
    15:00 +25°C° 0.2 mm 2 mps 681 mmHg 74%
    16:00 +24°C° 0.2 mm 2 mps 681 mmHg 80%
    17:00 +23°C° 0.3 mm 1 mps 681 mmHg 85%
    18:00 +21°C° 0.3 mm 1 mps 681 mmHg 91%
    19:00 +20°C° 0.3 mm 1 mps 681 mmHg 96%
    20:00 +20°C° 0 mm 1 mps 681 mmHg 96%
    21:00 +20°C° 0 mm 1 mps 681 mmHg 96%
    22:00 +19°C° 0 mm 1 mps 681 mmHg 97%
    23:00 +19°C° 0 mm 1 mps 681 mmHg 96%

    Day after tomorrow, 15 November, Friday

    Time Temperature Precipitation Wind Pressure Humidity
    00:00 +19°C° 0 mm 1 mps 681 mmHg 94%
    01:00 +18°C° 0 mm 1 mps 680 mmHg 93%
    02:00 +18°C° 0 mm 1 mps 680 mmHg 92%
    03:00 +18°C° 0 mm 1 mps 680 mmHg 91%
    04:00 +18°C° 0 mm 1 mps 680 mmHg 90%
    05:00 +18°C° 0 mm 1 mps 681 mmHg 89%
    06:00 +19°C° 0 mm 1 mps 681 mmHg 88%
    07:00 +18°C° 0 mm 0 mps 682 mmHg 86%
    08:00 +22°C° 0 mm 1 mps 682 mmHg 79%
    09:00 +24°C° 0 mm 1 mps 682 mmHg 71%
    10:00 +26°C° 0 mm 2 mps 683 mmHg 63%
    11:00 +26°C° 0 mm 2 mps 682 mmHg 63%
    12:00 +27°C° 0 mm 2 mps 682 mmHg 63%
    13:00 +27°C° 0 mm 2 mps 681 mmHg 63%
    14:00 +26°C° 0 mm 2 mps 681 mmHg 68%
    15:00 +25°C° 0 mm 2 mps 680 mmHg 74%
    16:00 +24°C° 0 mm 1 mps 680 mmHg 79%
    17:00 +23°C° 0.1 mm 1 mps 680 mmHg 84%
    18:00 +21°C° 0.1 mm 1 mps 680 mmHg 90%
    19:00 +20°C° 0.1 mm 1 mps 680 mmHg 96%
    20:00 +18°C° 0 mm 0 mps 680 mmHg 95%
    21:00 +17°C° 0 mm 0 mps 680 mmHg 95%
    22:00 +17°C° 0 mm 0 mps 680 mmHg 95%
    23:00 +17°C° 0 mm 0 mps 679 mmHg 94%

    16 November, Saturday

    Time Temperature Precipitation Wind Pressure Humidity
    00:00 +16°C° 0 mm 0 mps 679 mmHg 93%
    01:00 +18°C° 0 mm 1 mps 678 mmHg 92%
    02:00 +18°C° 0 mm 1 mps 678 mmHg 89%
    03:00 +16°C° 0 mm 1 mps 678 mmHg 86%
    04:00 +16°C° 0 mm 1 mps 678 mmHg 83%
    05:00 +18°C° 0 mm 1 mps 678 mmHg 80%
    06:00 +19°C° 0 mm 1 mps 679 mmHg 77%
    07:00 +19°C° 0 mm 1 mps 679 mmHg 74%
    08:00 +21°C° 0 mm 1 mps 680 mmHg 69%
    09:00 +24°C° 0 mm 1 mps 680 mmHg 63%
    10:00 +26°C° 0 mm 1 mps 681 mmHg 58%
    11:00 +26°C° 0 mm 1 mps 680 mmHg 57%
    12:00 +27°C° 0 mm 1 mps 680 mmHg 56%
    13:00 +27°C° 0 mm 1 mps 679 mmHg 56%
    14:00 +26°C° 0 mm 1 mps 679 mmHg 61%
    15:00 +26°C° 0 mm 1 mps 678 mmHg 67%
    16:00 +25°C° 0 mm 1 mps 678 mmHg 73%
    17:00 +23°C° 0 mm 1 mps 678 mmHg 79%
    18:00 +20°C° 0 mm 0 mps 678 mmHg 86%
    19:00 +18°C° 0 mm 0 mps 678 mmHg 93%
    20:00 +18°C° 0 mm 0 mps 678 mmHg 93%
    21:00 +18°C° 0 mm 0 mps 678 mmHg 93%
    22:00 +17°C° 0 mm 0 mps 678 mmHg 94%
    23:00 +17°C° 0 mm 0 mps 678 mmHg 93%

    17 November, Sunday

    Time Temperature Precipitation Wind Pressure Humidity
    00:00 +17°C° 0 mm 0 mps 677 mmHg 93%
    01:00 +19°C° 0 mm 1 mps 677 mmHg 92%
    02:00 +18°C° 0 mm 1 mps 677 mmHg 92%
    03:00 +18°C° 0 mm 1 mps 677 mmHg 91%
    04:00 +18°C° 0 mm 1 mps 677 mmHg 90%
    05:00 +19°C° 0 mm 1 mps 677 mmHg 87%
    06:00 +19°C° 0 mm 1 mps 678 mmHg 85%
    07:00 +20°C° 0 mm 1 mps 678 mmHg 82%
    08:00 +22°C° 0 mm 1 mps 679 mmHg 75%
    09:00 +24°C° 0 mm 1 mps 680 mmHg 69%
    10:00 +26°C° 0 mm 1 mps 680 mmHg 62%
    11:00 +26°C° 0 mm 1 mps 680 mmHg 61%
    12:00 +27°C° 0 mm 1 mps 679 mmHg 61%
    13:00 +27°C° 0 mm 1 mps 679 mmHg 61%
    14:00 +26°C° 0.1 mm 1 mps 678 mmHg 67%
    15:00 +25°C° 0.1 mm 1 mps 678 mmHg 74%
    16:00 +24°C° 0.1 mm 1 mps 678 mmHg 80%
    17:00 +23°C° 0.2 mm 1 mps 678 mmHg 86%
    18:00 +22°C° 0.2 mm 1 mps 678 mmHg 91%
    19:00 +18°C° 0.2 mm 0 mps 678 mmHg 97%
    20:00 +18°C° 0.1 mm 0 mps 678 mmHg 97%
    21:00 +18°C° 0.1 mm 0 mps 678 mmHg 97%
    22:00 +18°C° 0.1 mm 0 mps 678 mmHg 97%
    23:00 +18°C° 0 mm 0 mps 678 mmHg 96%

    18 November, Monday

    Time Temperature Precipitation Wind Pressure Humidity
    00:00 +18°C° 0 mm 0 mps 678 mmHg 96%
    01:00 +17°C° 0 mm 0 mps 678 mmHg 96%
    02:00 +17°C° 0 mm 0 mps 678 mmHg 95%
    03:00 +17°C° 0 mm 0 mps 677 mmHg 95%
    04:00 +16°C° 0 mm 0 mps 677 mmHg 94%
    05:00 +17°C° 0 mm 0 mps 678 mmHg 93%
    06:00 +18°C° 0 mm 0 mps 678 mmHg 91%
    07:00 +18°C° 0 mm 0 mps 679 mmHg 90%
    08:00 +22°C° 0 mm 1 mps 680 mmHg 82%
    09:00 +24°C° 0 mm 1 mps 680 mmHg 73%
    10:00 +26°C° 0 mm 1 mps 681 mmHg 65%
    11:00 +26°C° 0.1 mm 1 mps 680 mmHg 65%
    12:00 +27°C° 0.1 mm 2 mps 680 mmHg 65%
    13:00 +27°C° 0.1 mm 2 mps 679 mmHg 65%
    14:00 +26°C° 0.7 mm 2 mps 679 mmHg 73%
    15:00 +25°C° 0.7 mm 1 mps 679 mmHg 81%
    16:00 +24°C° 0.7 mm 1 mps 678 mmHg 89%
    17:00 +23°C° 0.5 mm 1 mps 678 mmHg 91%
    18:00 +21°C° 0.5 mm 1 mps 678 mmHg 94%
    19:00 +20°C° 0.5 mm 1 mps 679 mmHg 96%
    20:00 +20°C° 0 mm 1 mps 679 mmHg 96%
    21:00 +18°C° 0 mm 0 mps 679 mmHg 97%
    22:00 +18°C° 0 mm 0 mps 679 mmHg 97%
    23:00 +19°C° 0 mm 1 mps 679 mmHg 96%
    Show more